Flag for Switzerland Weather past 2 weeks in Mendrisio, Ticino, Switzerland

Now
48 °F

Cool.


Feels Like: 48 °F
Forecast: 46 / 63 °F
Wind: No wind

Location: Stabio


UV Index: 5 (Moderate)

Visibility: N/A


Pressure: 29.91 "Hg

Humidity: 96%

Dew point: 47 °F

Location of MendrisioLocation

Historic Weather in Mendrisio

°F

Mendrisio temperature yesterday

Maximum temperature yesterday: 75 °F (at 3:00 PM)
Minimum temperature yesterday: 45 °F (at 4:00 AM)
Average temperature yesterday: 60 °F

Past Weeks' High & Low Weather Summary

 TemperatureHumidityPressure
High75 °F (Apr 24, 3:00 PM)100% (Apr 20, 3:00 AM)30.21 "Hg (Apr 20, 3:00 AM)
Low31 °F (Apr 17, 7:00 AM)13% (Apr 15, 2:00 PM)29.66 "Hg (Apr 18, 8:00 PM)
Average54 °F67%29.94 "Hg
* Reported Apr 10 5:00 AM — Apr 25 5:00 AM, Mendrisio, Weather by CustomWeather, © 2014

Note: Actual official high and low records may vary slightly from our data, if they occured in-between our weather recording intervals... More about our weather records

Advertising

Historic Weather Conditions — Data for Previous 24 hours

 ConditionsComfort  
Time TempWeatherWind HumidityBarometerVisibility
5:00 AM
Apr 25
48 °FCool.No wind96%29.91 "HgN/A
4:00 AM49 °FCool.1 mph96%29.91 "HgN/A
3:00 AM49 °FCool.1 mph94%29.93 "HgN/A
2:00 AM51 °FCool.No wind92%29.94 "HgN/A
1:00 AM52 °FCool.No wind90%29.95 "HgN/A
12:00 AM54 °FCool.No wind86%29.94 "HgN/A
11:00 PM
Apr 24
55 °FCool.1 mph84%29.93 "HgN/A
10:00 PM56 °FCool.1 mph82%29.93 "HgN/A
9:00 PM59 °FCool.No wind69%29.90 "HgN/A
8:00 PM64 °FMild.1 mph59%29.89 "HgN/A
7:00 PM72 °FMild.3 mph37%29.86 "HgN/A
6:00 PM73 °FMild.5 mph39%29.86 "HgN/A
5:00 PM73 °FMild.6 mph40%29.85 "HgN/A
4:00 PM74 °FMild.9 mph44%29.86 "HgN/A
3:00 PM75 °FMild.3 mph41%29.87 "HgN/A
2:00 PM75 °FMild.5 mph38%29.89 "HgN/A
1:00 PM73 °FMild.3 mph41%29.92 "HgN/A
12:00 PM71 °FMild.6 mph48%29.94 "HgN/A
11:00 AM68 °FMild.1 mph51%29.96 "HgN/A
10:00 AM62 °FMild.2 mph63%29.98 "HgN/A
9:00 AM58 °FCool.1 mph78%30.00 "HgN/A
8:00 AM51 °FCool.1 mph96%30.03 "HgN/A
7:00 AM46 °FCool.1 mph97%30.04 "HgN/A
6:00 AM45 °FCool.1 mph98%30.03 "HgN/A
Weather by CustomWeather, © 2014

See weather overview